Hourly Weather Ryabinovka

Today, 14 April, Wednesday

Time Temperature Precipitation Wind Pressure Humidity
00:00 +8°C° 0.2 mm 3 mps 751 mmHg 88%
01:00 +8°C° 0.2 mm 3 mps 751 mmHg 88%
02:00 +7°C° 0 mm 3 mps 751 mmHg 88%
03:00 +7°C° 0.1 mm 3 mps 751 mmHg 88%
04:00 +5°C° 0.1 mm 3 mps 751 mmHg 88%
05:00 +5°C° 0.1 mm 3 mps 751 mmHg 88%
06:00 +4°C° 0.1 mm 3 mps 751 mmHg 88%
07:00 +4°C° 0.1 mm 3 mps 751 mmHg 88%
08:00 +4°C° 0.1 mm 4 mps 752 mmHg 88%
09:00 +4°C° 0.2 mm 4 mps 752 mmHg 88%
10:00 +4°C° 0.2 mm 4 mps 752 mmHg 87%
11:00 +4°C° 0.2 mm 4 mps 752 mmHg 87%
12:00 +4°C° 0.5 mm 4 mps 752 mmHg 88%
13:00 +4°C° 0.5 mm 4 mps 752 mmHg 89%
14:00 +4°C° 0.5 mm 4 mps 752 mmHg 90%
15:00 +4°C° 0.2 mm 4 mps 752 mmHg 90%
16:00 +4°C° 0.2 mm 4 mps 752 mmHg 89%
17:00 +4°C° 0.2 mm 4 mps 752 mmHg 89%
18:00 +4°C° 0.1 mm 4 mps 752 mmHg 89%
19:00 +3°C° 0.1 mm 4 mps 753 mmHg 89%
20:00 +3°C° 0.1 mm 4 mps 753 mmHg 89%
21:00 +3°C° 0 mm 4 mps 753 mmHg 89%
22:00 +3°C° 0 mm 4 mps 753 mmHg 90%
23:00 +3°C° 0 mm 4 mps 753 mmHg 90%

Tomorrow, 15 April, Thursday

Time Temperature Precipitation Wind Pressure Humidity
00:00 +3°C° 0 mm 4 mps 753 mmHg 90%
01:00 +3°C° 0 mm 4 mps 753 mmHg 90%
02:00 +3°C° 0 mm 4 mps 753 mmHg 90%
03:00 +3°C° 0.1 mm 4 mps 753 mmHg 89%
04:00 +3°C° 0.1 mm 4 mps 753 mmHg 88%
05:00 +3°C° 0.1 mm 4 mps 753 mmHg 88%
06:00 +2°C° 0.2 mm 5 mps 753 mmHg 86%
07:00 +2°C° 0.2 mm 5 mps 753 mmHg 84%
08:00 +2°C° 0.2 mm 5 mps 753 mmHg 81%
09:00 +2°C° 0.3 mm 5 mps 753 mmHg 83%
10:00 +2°C° 0.3 mm 5 mps 753 mmHg 85%
11:00 +2°C° 0.3 mm 5 mps 753 mmHg 86%
12:00 +2°C° 0.4 mm 5 mps 753 mmHg 88%
13:00 +2°C° 0.4 mm 5 mps 753 mmHg 89%
14:00 +2°C° 0.4 mm 5 mps 753 mmHg 91%
15:00 +3°C° 0.3 mm 5 mps 753 mmHg 91%
16:00 +3°C° 0.3 mm 5 mps 753 mmHg 91%
17:00 +3°C° 0.3 mm 5 mps 753 mmHg 90%
18:00 +3°C° 0.2 mm 6 mps 753 mmHg 91%
19:00 +3°C° 0.2 mm 6 mps 753 mmHg 91%
20:00 +3°C° 0.2 mm 6 mps 753 mmHg 91%
21:00 +4°C° 0.1 mm 6 mps 752 mmHg 91%
22:00 +5°C° 0.1 mm 5 mps 752 mmHg 91%
23:00 +5°C° 0.1 mm 5 mps 752 mmHg 91%

Day after tomorrow, 16 April, Friday

Time Temperature Precipitation Wind Pressure Humidity
00:00 +5°C° 0 mm 5 mps 752 mmHg 90%
01:00 +5°C° 0 mm 5 mps 752 mmHg 90%
02:00 +5°C° 0 mm 5 mps 752 mmHg 90%
03:00 +5°C° 0 mm 5 mps 752 mmHg 90%
04:00 +3°C° 0 mm 5 mps 752 mmHg 90%
05:00 +3°C° 0 mm 5 mps 752 mmHg 90%
06:00 +5°C° 0 mm 5 mps 752 mmHg 89%
07:00 +5°C° 0 mm 5 mps 753 mmHg 88%
08:00 +5°C° 0 mm 5 mps 753 mmHg 87%
09:00 +6°C° 0 mm 5 mps 753 mmHg 87%
10:00 +6°C° 0 mm 5 mps 753 mmHg 87%
11:00 +6°C° 0 mm 5 mps 753 mmHg 86%
12:00 +7°C° 0 mm 5 mps 753 mmHg 84%
13:00 +7°C° 0 mm 5 mps 753 mmHg 82%
14:00 +8°C° 0 mm 5 mps 754 mmHg 80%
15:00 +8°C° 0 mm 5 mps 754 mmHg 80%
16:00 +8°C° 0 mm 5 mps 754 mmHg 80%
17:00 +8°C° 0 mm 5 mps 754 mmHg 80%
18:00 +8°C° 0 mm 5 mps 754 mmHg 81%
19:00 +8°C° 0 mm 5 mps 754 mmHg 83%
20:00 +8°C° 0 mm 5 mps 754 mmHg 84%
21:00 +8°C° 0 mm 5 mps 754 mmHg 83%
22:00 +8°C° 0 mm 5 mps 754 mmHg 83%
23:00 +8°C° 0 mm 5 mps 754 mmHg 82%

17 April, Saturday

Time Temperature Precipitation Wind Pressure Humidity
00:00 +8°C° 0 mm 5 mps 754 mmHg 82%
01:00 +7°C° 0 mm 5 mps 755 mmHg 83%
02:00 +7°C° 0 mm 5 mps 755 mmHg 83%
03:00 +6°C° 0 mm 4 mps 755 mmHg 84%
04:00 +6°C° 0 mm 4 mps 755 mmHg 85%
05:00 +5°C° 0 mm 4 mps 755 mmHg 86%
06:00 +6°C° 0 mm 4 mps 756 mmHg 85%
07:00 +6°C° 0 mm 4 mps 756 mmHg 83%
08:00 +6°C° 0 mm 4 mps 756 mmHg 81%
09:00 +7°C° 0 mm 4 mps 757 mmHg 80%
10:00 +7°C° 0 mm 4 mps 757 mmHg 79%
11:00 +8°C° 0 mm 3 mps 757 mmHg 78%
12:00 +9°C° 0 mm 3 mps 757 mmHg 77%
13:00 +9°C° 0 mm 3 mps 757 mmHg 75%
14:00 +10°C° 0 mm 4 mps 757 mmHg 73%
15:00 +11°C° 0 mm 3 mps 757 mmHg 72%
16:00 +11°C° 0 mm 3 mps 757 mmHg 71%
17:00 +12°C° 0 mm 3 mps 757 mmHg 70%
18:00 +11°C° 0 mm 3 mps 757 mmHg 73%
19:00 +10°C° 0 mm 3 mps 757 mmHg 76%
20:00 +10°C° 0 mm 2 mps 757 mmHg 78%
21:00 +9°C° 0 mm 3 mps 757 mmHg 77%
22:00 +9°C° 0 mm 3 mps 757 mmHg 76%
23:00 +9°C° 0 mm 3 mps 758 mmHg 75%

18 April, Sunday

Time Temperature Precipitation Wind Pressure Humidity
00:00 +8°C° 0 mm 3 mps 758 mmHg 76%
01:00 +7°C° 0 mm 3 mps 758 mmHg 76%
02:00 +7°C° 0 mm 3 mps 758 mmHg 77%
03:00 +5°C° 0 mm 3 mps 758 mmHg 77%
04:00 +4°C° 0 mm 3 mps 758 mmHg 77%
05:00 +4°C° 0 mm 3 mps 758 mmHg 77%
06:00 +5°C° 0 mm 3 mps 758 mmHg 71%
07:00 +7°C° 0 mm 3 mps 758 mmHg 66%
08:00 +7°C° 0 mm 4 mps 758 mmHg 60%
09:00 +10°C° 0 mm 4 mps 758 mmHg 56%
10:00 +11°C° 0 mm 4 mps 758 mmHg 52%
11:00 +13°C° 0 mm 4 mps 758 mmHg 48%
12:00 +14°C° 0 mm 4 mps 758 mmHg 48%
13:00 +14°C° 0 mm 4 mps 758 mmHg 47%
14:00 +15°C° 0 mm 4 mps 758 mmHg 47%
15:00 +15°C° 0 mm 4 mps 758 mmHg 50%
16:00 +14°C° 0 mm 3 mps 758 mmHg 54%
17:00 +13°C° 0 mm 3 mps 758 mmHg 58%
18:00 +13°C° 0 mm 3 mps 758 mmHg 62%
19:00 +13°C° 0 mm 2 mps 758 mmHg 65%
20:00 +12°C° 0 mm 2 mps 758 mmHg 69%
21:00 +12°C° 0 mm 2 mps 759 mmHg 73%
22:00 +10°C° 0 mm 2 mps 759 mmHg 76%
23:00 +10°C° 0 mm 2 mps 759 mmHg 79%

19 April, Monday

Time Temperature Precipitation Wind Pressure Humidity
00:00 +9°C° 0 mm 2 mps 759 mmHg 81%
01:00 +9°C° 0 mm 2 mps 759 mmHg 82%
02:00 +9°C° 0 mm 2 mps 759 mmHg 83%
03:00 +9°C° 0 mm 2 mps 759 mmHg 83%
04:00 +8°C° 0 mm 2 mps 759 mmHg 82%
05:00 +8°C° 0 mm 2 mps 759 mmHg 82%
06:00 +9°C° 0 mm 2 mps 760 mmHg 80%
07:00 +9°C° 0 mm 3 mps 760 mmHg 77%
08:00 +9°C° 0 mm 3 mps 760 mmHg 75%
09:00 +11°C° 0 mm 3 mps 760 mmHg 65%
10:00 +13°C° 0 mm 4 mps 760 mmHg 56%
11:00 +14°C° 0 mm 4 mps 760 mmHg 46%
12:00 +15°C° 0 mm 4 mps 760 mmHg 43%
13:00 +15°C° 0 mm 4 mps 759 mmHg 41%
14:00 +17°C° 0 mm 4 mps 759 mmHg 38%
15:00 +17°C° 0 mm 4 mps 759 mmHg 40%
16:00 +15°C° 0 mm 4 mps 759 mmHg 42%
17:00 +15°C° 0 mm 4 mps 759 mmHg 44%
18:00 +13°C° 0 mm 3 mps 759 mmHg 51%
19:00 +11°C° 0 mm 3 mps 759 mmHg 58%
20:00 +10°C° 0 mm 2 mps 759 mmHg 65%
21:00 +9°C° 0 mm 2 mps 759 mmHg 68%
22:00 +8°C° 0 mm 2 mps 758 mmHg 71%
23:00 +8°C° 0 mm 2 mps 758 mmHg 73%
Show more